Location: Unspecified
(59.3286°N, 0.0000°E)
Time: 04:52:50
(UTC+00:00)

Transit 2A Rocket - All Passes

Search period start: 04 April 2026 00:00
Search period end: 14 April 2026 00:00
Orbit: 584 x 899 km, 66.7° (Epoch: 28 March)

Date Brightness Start Highest point End Pass type
(mag) Time Alt. Az. Time Alt. Az. Time Alt. Az.
4 Apr - 05:04:06 10° S 05:09:26 37° ESE 05:14:28 10° ENE daylight
4 Apr - 06:45:43 10° SW 06:51:36 79° NW 06:57:01 10° NE daylight
4 Apr - 08:29:13 10° W 08:34:37 42° NNW 08:39:36 10° ENE daylight
4 Apr - 10:12:49 10° WNW 10:18:02 40° N 10:22:47 10° E daylight
4 Apr - 11:55:44 10° NW 12:01:05 75° NE 12:05:55 10° ESE daylight
4 Apr - 13:38:30 10° WNW 13:43:07 34° WSW 13:47:22 10° S daylight
5 Apr - 04:19:19 10° SSE 04:24:01 25° ESE 04:28:30 10° ENE visible
5 Apr - 06:00:00 10° SW 06:05:51 79° SE 06:11:19 10° NE daylight
5 Apr - 07:43:06 10° W 07:48:39 48° NNW 07:53:47 10° NE daylight
5 Apr - 09:26:50 10° WNW 09:32:01 38° N 09:36:46 10° ENE daylight
5 Apr - 11:09:57 10° NW 11:15:16 58° NNE 11:20:05 10° ESE daylight
5 Apr - 12:52:37 10° NW 12:57:40 51° SW 13:02:13 10° SSE daylight
5 Apr - 14:36:48 10° W 14:38:47 12° WSW 14:40:44 10° SW daylight
6 Apr - 03:35:04 10° SSE 03:38:42 17° ESE 03:42:13 10° ENE visible
6 Apr - 05:14:29 10° SSW 05:20:12 57° SE 05:25:35 10° NE daylight
6 Apr - 06:57:03 10° WSW 07:02:44 58° NNW 07:08:01 10° NE daylight
6 Apr - 08:40:46 10° WNW 08:45:59 38° N 08:50:48 10° ENE daylight
6 Apr - 10:24:07 10° NW 10:29:21 47° NNE 10:34:08 10° E daylight
6 Apr - 12:06:49 10° NW 12:12:05 74° SW 12:16:49 10° SE daylight
6 Apr - 13:50:02 10° WNW 13:53:36 20° WSW 13:56:59 10° SSW daylight
7 Apr - 02:52:12 10° ESE 02:53:30 11° ESE 02:54:47 10° E visible
7 Apr - 04:29:14 10° S 04:34:40 40° ESE 04:39:46 10° NE daylight
7 Apr - 06:11:05 10° WSW 06:16:54 74° NW 06:22:17 10° NE daylight
7 Apr - 07:54:39 10° W 07:59:58 41° NNW 08:04:54 10° ENE daylight
7 Apr - 09:38:13 10° WNW 09:43:23 41° NNE 09:48:07 10° E daylight
7 Apr - 11:21:03 10° NW 11:26:22 81° NE 11:31:11 10° SE daylight
7 Apr - 13:03:53 10° WNW 13:08:17 30° WSW 13:12:22 10° S daylight
8 Apr - 03:44:19 10° S 03:49:12 28° ESE 03:53:51 10° ENE visible
8 Apr - 05:25:18 10° SW 05:31:09 85° SE 05:36:34 10° NE daylight
8 Apr - 07:08:31 10° W 07:14:00 46° NNW 07:19:03 10° NE daylight
8 Apr - 08:52:14 10° WNW 08:57:23 38° N 09:02:06 10° ENE daylight
8 Apr - 10:35:16 10° NW 10:40:34 62° NNE 10:45:22 10° ESE daylight
8 Apr - 12:17:57 10° NW 12:22:52 45° SW 12:27:20 10° SSE daylight
8 Apr - 14:02:59 10° W 14:03:53 10° WSW 14:04:47 10° WSW daylight
9 Apr - 02:59:53 10° SSE 03:03:51 19° ESE 03:07:41 10° ENE visible
9 Apr - 04:39:42 10° SSW 04:45:28 63° SE 04:50:50 10° NE daylight
9 Apr - 06:22:26 10° WSW 06:28:04 55° NNW 06:33:16 10° NE daylight
9 Apr - 08:06:10 10° WNW 08:11:20 38° N 08:16:06 10° ENE daylight
9 Apr - 09:49:27 10° NW 09:54:41 49° NNE 09:59:26 10° E daylight
9 Apr - 11:32:08 10° NW 11:37:19 67° SW 11:41:59 10° SE daylight
9 Apr - 13:15:32 10° WNW 13:18:44 17° WSW 13:21:46 10° SSW daylight
10 Apr - 02:16:23 10° SE 02:18:37 12° ESE 02:20:48 10° E visible
10 Apr - 03:54:22 10° SSW 03:59:53 44° SE 04:05:03 10° NE visible
10 Apr - 05:36:26 10° WSW 05:42:12 69° NNW 05:47:31 10° NE daylight
10 Apr - 07:20:04 10° W 07:25:19 40° N 07:30:10 10° ENE daylight
10 Apr - 09:03:34 10° WNW 09:08:44 42° NNE 09:13:25 10° E daylight
10 Apr - 10:46:21 10° NW 10:51:38 88° NE 10:56:24 10° SE daylight
10 Apr - 12:29:16 10° WNW 12:33:26 26° WSW 12:37:19 10° S daylight
11 Apr - 03:09:21 10° S 03:14:23 31° ESE 03:19:10 10° ENE visible
11 Apr - 04:50:36 10° SW 04:56:25 88° NW 05:01:48 10° NE daylight
11 Apr - 06:33:56 10° W 06:39:19 44° NNW 06:44:18 10° NE daylight
11 Apr - 08:17:36 10° WNW 08:22:43 39° N 08:27:23 10° ENE daylight
11 Apr - 10:00:35 10° NW 10:05:51 66° NNE 10:10:37 10° ESE daylight
11 Apr - 11:43:17 10° NW 11:48:02 40° WSW 11:52:23 10° SSE daylight
12 Apr - 02:24:45 10° SSE 02:29:00 21° ESE 02:33:04 10° ENE visible
12 Apr - 04:04:56 10° SW 04:10:43 69° SE 04:16:04 10° NE visible
12 Apr - 05:47:49 10° W 05:53:23 52° NNW 05:58:30 10° NE daylight
12 Apr - 07:31:34 10° WNW 07:36:41 37° N 07:41:23 10° ENE daylight
12 Apr - 09:14:46 10° NW 09:19:59 52° NNE 09:24:42 10° ESE daylight
12 Apr - 10:57:26 10° NW 11:02:30 59° SW 11:07:07 10° SSE daylight
12 Apr - 12:41:04 10° WNW 12:43:48 15° WSW 12:46:26 10° SW daylight
13 Apr - 01:40:53 10° SE 01:43:43 14° ESE 01:46:29 10° ENE visible
13 Apr - 03:19:31 10° SSW 03:25:05 49° SE 03:30:18 10° NE visible
13 Apr - 05:01:47 10° WSW 05:07:29 64° NNW 05:12:44 10° NE daylight
13 Apr - 06:45:28 10° WNW 06:50:39 39° N 06:55:26 10° ENE daylight
13 Apr - 08:28:54 10° NW 08:34:02 44° NNE 08:38:43 10° E daylight
13 Apr - 10:11:39 10° NW 10:16:52 85° SW 10:21:34 10° SE daylight
13 Apr - 11:54:39 10° WNW 11:58:33 23° WSW 12:02:13 10° SSW daylight
